Time,TemperatureF,DewpointF,PressureIn,WindDirection,WindDirectionDegrees,WindSpeedMPH,WindSpeedGustMPH,Humidity,HourlyPrecipIn,Conditions,Clouds,dailyrainin,SoftwareType,DateUTC
2013-01-18 00:01:00,12.5,4.0,29.64,NE,45,3.7,9.8,65,0.00,,,0.00,Rainwise IP-100,2013-01-18 05:01:00,
2013-01-18 00:06:00,12.4,4.0,29.64,NNE,22,6.3,10.0,65,0.00,,,0.00,Rainwise IP-100,2013-01-18 05:06:00,
2013-01-18 00:12:00,12.3,4.0,29.64,NNE,22,2.8,11.0,65,0.00,,,0.00,Rainwise IP-100,2013-01-18 05:12:00,
2013-01-18 00:17:00,12.2,4.0,29.65,NW,315,4.2,8.6,65,0.00,,,0.00,Rainwise IP-100,2013-01-18 05:17:00,
2013-01-18 00:22:00,12.2,4.0,29.66,NNE,22,3.3,9.1,65,0.00,,,0.00,Rainwise IP-100,2013-01-18 05:22:00,
2013-01-18 00:27:00,12.1,4.0,29.67,NNE,22,3.3,8.2,64,0.00,,,0.00,Rainwise IP-100,2013-01-18 05:27:00,
2013-01-18 00:32:00,12.1,4.0,29.68,NE,45,3.7,7.5,65,0.00,,,0.00,Rainwise IP-100,2013-01-18 05:32:00,
2013-01-18 00:37:00,12.1,4.0,29.67,NE,45,5.6,7.0,65,0.00,,,0.00,Rainwise IP-100,2013-01-18 05:37:00,
2013-01-18 00:42:00,12.0,4.0,29.67,NE,45,3.7,6.8,65,0.00,,,0.00,Rainwise IP-100,2013-01-18 05:42:00,
2013-01-18 00:47:00,11.9,4.0,29.68,NNE,22,4.4,10.7,65,0.00,,,0.00,Rainwise IP-100,2013-01-18 05:47:00,
2013-01-18 00:52:00,11.8,4.0,29.66,NNW,337,3.7,9.3,65,0.00,,,0.00,Rainwise IP-100,2013-01-18 05:52:00,
2013-01-18 00:57:00,11.7,4.0,29.67,NE,45,4.7,8.6,65,0.00,,,0.00,Rainwise IP-100,2013-01-18 05:57:00,
2013-01-18 01:02:00,11.6,4.0,29.68,NNE,22,2.6,9.1,65,0.00,,,0.00,Rainwise IP-100,2013-01-18 06:02:00,
2013-01-18 01:07:00,11.5,4.0,29.67,ENE,67,5.6,9.1,65,0.00,,,0.00,Rainwise IP-100,2013-01-18 06:07:00,
2013-01-18 01:12:00,11.4,4.0,29.67,ENE,67,7.2,10.3,65,0.00,,,0.00,Rainwise IP-100,2013-01-18 06:12:00,
2013-01-18 01:17:00,11.3,4.0,29.68,NNE,22,7.2,11.2,65,0.00,,,0.00,Rainwise IP-100,2013-01-18 06:17:00,
2013-01-18 01:22:00,11.3,4.0,29.67,ENE,67,6.1,11.4,65,0.00,,,0.00,Rainwise IP-100,2013-01-18 06:22:00,
2013-01-18 01:28:00,11.2,4.0,29.67,NNE,22,4.7,9.8,65,0.00,,,0.00,Rainwise IP-100,2013-01-18 06:28:00,
2013-01-18 01:33:00,11.1,4.0,29.67,NE,45,4.7,12.4,65,0.00,,,0.00,Rainwise IP-100,2013-01-18 06:33:00,
2013-01-18 01:38:00,11.1,4.0,29.68,NNE,22,4.2,9.1,65,0.00,,,0.00,Rainwise IP-100,2013-01-18 06:38:00,
2013-01-18 01:43:00,11.0,4.0,29.67,NE,45,6.3,9.3,65,0.00,,,0.00,Rainwise IP-100,2013-01-18 06:43:00,
2013-01-18 01:48:00,11.0,4.0,29.67,NE,45,6.5,8.9,65,0.00,,,0.00,Rainwise IP-100,2013-01-18 06:48:00,
2013-01-18 01:53:00,10.9,4.0,29.67,ENE,67,6.3,10.0,65,0.00,,,0.00,Rainwise IP-100,2013-01-18 06:53:00,
2013-01-18 01:58:00,10.8,4.0,29.68,NE,45,1.9,11.0,65,0.00,,,0.00,Rainwise IP-100,2013-01-18 06:58:00,
2013-01-18 02:03:00,10.7,4.0,29.69,NE,45,3.5,7.2,65,0.00,,,0.00,Rainwise IP-100,2013-01-18 07:03:00,
2013-01-18 02:08:00,10.6,4.0,29.68,ENE,67,5.1,8.6,65,0.00,,,0.00,Rainwise IP-100,2013-01-18 07:08:00,
2013-01-18 02:13:00,10.5,4.0,29.69,ENE,67,6.1,7.0,66,0.00,,,0.00,Rainwise IP-100,2013-01-18 07:13:00,
2013-01-18 02:18:00,10.5,4.0,29.70,NNE,22,3.5,8.4,65,0.00,,,0.00,Rainwise IP-100,2013-01-18 07:18:00,
2013-01-18 02:23:00,10.4,4.0,29.70,NNE,22,6.1,6.1,65,0.00,,,0.00,Rainwise IP-100,2013-01-18 07:23:00,
2013-01-18 02:28:00,10.3,4.0,29.69,ENE,67,6.1,6.5,66,0.00,,,0.00,Rainwise IP-100,2013-01-18 07:28:00,
2013-01-18 02:33:00,10.3,4.0,29.71,ENE,67,0.0,7.5,66,0.00,,,0.00,Rainwise IP-100,2013-01-18 07:33:00,
2013-01-18 02:38:00,10.2,4.0,29.71,ENE,67,5.4,5.4,66,0.00,,,0.00,Rainwise IP-100,2013-01-18 07:38:00,
2013-01-18 02:44:00,10.1,4.0,29.71,NE,45,3.7,6.8,66,0.00,,,0.00,Rainwise IP-100,2013-01-18 07:44:00,
2013-01-18 02:49:00,10.1,4.0,29.72,NE,45,1.4,5.6,66,0.00,,,0.00,Rainwise IP-100,2013-01-18 07:49:00,
2013-01-18 02:54:00,9.9,4.0,29.72,NE,45,1.9,5.4,66,0.00,,,0.00,Rainwise IP-100,2013-01-18 07:54:00,
2013-01-18 02:59:00,9.7,4.0,29.72,NE,45,2.1,5.6,67,0.00,,,0.00,Rainwise IP-100,2013-01-18 07:59:00,
2013-01-18 03:04:00,9.6,4.0,29.71,ENE,67,2.6,5.8,67,0.00,,,0.00,Rainwise IP-100,2013-01-18 08:04:00,
2013-01-18 03:09:00,9.5,4.0,29.72,NNE,22,1.9,4.7,68,0.00,,,0.00,Rainwise IP-100,2013-01-18 08:09:00,
2013-01-18 03:14:00,9.4,4.0,29.71,NE,45,2.1,5.1,67,0.00,,,0.00,Rainwise IP-100,2013-01-18 08:14:00,
2013-01-18 03:19:00,9.3,4.0,29.71,NNE,22,3.0,6.5,68,0.00,,,0.00,Rainwise IP-100,2013-01-18 08:19:00,
2013-01-18 03:24:00,9.1,4.0,29.72,NNE,22,5.8,7.9,68,0.00,,,0.00,Rainwise IP-100,2013-01-18 08:24:00,
2013-01-18 03:29:00,9.1,4.0,29.72,NE,45,4.4,6.8,67,0.00,,,0.00,Rainwise IP-100,2013-01-18 08:29:00,
2013-01-18 03:34:00,9.0,4.0,29.72,NNE,22,2.6,6.1,67,0.00,,,0.00,Rainwise IP-100,2013-01-18 08:34:00,
2013-01-18 03:39:00,8.7,4.0,29.72,NNE,22,2.8,4.9,67,0.00,,,0.00,Rainwise IP-100,2013-01-18 08:39:00,
2013-01-18 03:44:00,8.5,4.0,29.72,NNE,22,3.5,4.7,68,0.00,,,0.00,Rainwise IP-100,2013-01-18 08:44:00,
2013-01-18 03:49:00,8.2,0.0,29.72,NNE,22,2.1,3.5,68,0.00,,,0.00,Rainwise IP-100,2013-01-18 08:49:00,
2013-01-18 03:54:00,8.2,0.0,29.72,NE,45,3.5,7.7,68,0.00,,,0.00,Rainwise IP-100,2013-01-18 08:54:00,
2013-01-18 04:00:00,8.2,0.0,29.72,NNE,22,1.4,4.9,67,0.00,,,0.00,Rainwise IP-100,2013-01-18 09:00:00,
2013-01-18 04:02:00,8.1,0.0,29.72,NNE,22,0.0,3.3,67,0.00,,,0.00,Rainwise IP-100,2013-01-18 09:02:00,
2013-01-18 04:07:00,7.7,0.0,29.72,NNW,337,1.9,4.2,69,0.00,,,0.00,Rainwise IP-100,2013-01-18 09:07:00,
2013-01-18 04:12:00,7.3,0.0,29.72,NNW,337,1.6,4.0,70,0.00,,,0.00,Rainwise IP-100,2013-01-18 09:12:00,
2013-01-18 04:17:00,7.0,0.0,29.73,NNW,337,0.0,2.8,71,0.00,,,0.00,Rainwise IP-100,2013-01-18 09:17:00,
2013-01-18 04:22:00,6.8,0.0,29.73,NNW,337,0.0,0.0,72,0.00,,,0.00,Rainwise IP-100,2013-01-18 09:22:00,
2013-01-18 04:27:00,6.8,0.0,29.73,NNW,337,0.0,0.0,74,0.00,,,0.00,Rainwise IP-100,2013-01-18 09:27:00,
2013-01-18 04:32:00,6.6,0.0,29.73,NNW,337,0.0,0.0,74,0.00,,,0.00,Rainwise IP-100,2013-01-18 09:32:00,
2013-01-18 04:37:00,6.4,0.0,29.73,NNW,337,0.0,0.0,74,0.00,,,0.00,Rainwise IP-100,2013-01-18 09:37:00,
2013-01-18 04:42:00,6.0,0.0,29.73,NNW,337,0.0,1.4,74,0.00,,,0.00,Rainwise IP-100,2013-01-18 09:42:00,
2013-01-18 04:48:00,5.4,0.0,29.74,NNW,337,2.3,2.3,73,0.00,,,0.00,Rainwise IP-100,2013-01-18 09:48:00,
2013-01-18 04:53:00,5.3,0.0,29.75,NNW,337,3.5,3.5,72,0.00,,,0.00,Rainwise IP-100,2013-01-18 09:53:00,
2013-01-18 04:58:00,5.4,0.0,29.75,NNW,337,0.0,3.5,71,0.00,,,0.00,Rainwise IP-100,2013-01-18 09:58:00,
2013-01-18 05:03:00,5.5,0.0,29.75,NW,315,0.0,4.9,70,0.00,,,0.00,Rainwise IP-100,2013-01-18 10:03:00,
2013-01-18 05:08:00,5.2,0.0,29.75,NW,315,2.3,2.3,70,0.00,,,0.00,Rainwise IP-100,2013-01-18 10:08:00,
2013-01-18 05:13:00,5.0,0.0,29.75,NNW,337,2.1,3.3,71,0.00,,,0.00,Rainwise IP-100,2013-01-18 10:13:00,
2013-01-18 05:18:00,5.0,0.0,29.76,NNW,337,2.1,3.5,71,0.00,,,0.00,Rainwise IP-100,2013-01-18 10:18:00,
2013-01-18 05:23:00,4.9,0.0,29.76,NNW,337,5.6,5.6,70,0.00,,,0.00,Rainwise IP-100,2013-01-18 10:23:00,
2013-01-18 05:28:00,4.9,0.0,29.76,NNW,337,3.5,6.8,70,0.00,,,0.00,Rainwise IP-100,2013-01-18 10:28:00,
2013-01-18 05:33:00,4.7,0.0,29.76,NNW,337,3.0,4.7,70,0.00,,,0.00,Rainwise IP-100,2013-01-18 10:33:00,
2013-01-18 05:38:00,4.4,0.0,29.76,NW,315,1.4,4.7,70,0.00,,,0.00,Rainwise IP-100,2013-01-18 10:38:00,
2013-01-18 05:43:00,4.4,-6.0,29.77,NNW,337,0.0,4.7,69,0.00,,,0.00,Rainwise IP-100,2013-01-18 10:43:00,
2013-01-18 05:48:00,4.3,-6.0,29.77,NNW,337,0.0,3.5,69,0.00,,,0.00,Rainwise IP-100,2013-01-18 10:48:00,
2013-01-18 05:53:00,4.1,-6.0,29.77,NW,315,0.0,3.0,69,0.00,,,0.00,Rainwise IP-100,2013-01-18 10:53:00,
2013-01-18 05:58:00,4.1,0.0,29.77,NW,315,0.0,2.8,70,0.00,,,0.00,Rainwise IP-100,2013-01-18 10:58:00,
2013-01-18 06:04:00,4.1,-6.0,29.77,NW,315,0.0,4.0,69,0.00,,,0.00,Rainwise IP-100,2013-01-18 11:04:00,
2013-01-18 06:09:00,3.9,0.0,29.77,NW,315,0.0,2.3,70,0.00,,,0.00,Rainwise IP-100,2013-01-18 11:09:00,
2013-01-18 06:14:00,3.6,0.0,29.78,NW,315,0.0,0.0,72,0.00,,,0.00,Rainwise IP-100,2013-01-18 11:14:00,
2013-01-18 06:19:00,3.0,0.0,29.78,NW,315,0.0,0.0,73,0.00,,,0.00,Rainwise IP-100,2013-01-18 11:19:00,
2013-01-18 06:24:00,2.5,0.0,29.78,NW,315,0.0,0.0,73,0.00,,,0.00,Rainwise IP-100,2013-01-18 11:24:00,
2013-01-18 06:29:00,2.2,0.0,29.79,NW,315,0.0,0.0,74,0.00,,,0.00,Rainwise IP-100,2013-01-18 11:29:00,
2013-01-18 06:34:00,1.8,0.0,29.80,NW,315,0.0,1.2,75,0.00,,,0.00,Rainwise IP-100,2013-01-18 11:34:00,
2013-01-18 06:39:00,1.2,0.0,29.80,NW,315,0.0,1.4,76,0.00,,,0.00,Rainwise IP-100,2013-01-18 11:39:00,
2013-01-18 06:44:00,1.0,0.0,29.81,NW,315,0.0,0.0,77,0.00,,,0.00,Rainwise IP-100,2013-01-18 11:44:00,
2013-01-18 06:49:00,1.1,0.0,29.81,NW,315,0.0,0.0,77,0.00,,,0.00,Rainwise IP-100,2013-01-18 11:49:00,
2013-01-18 06:54:00,1.2,0.0,29.81,NW,315,0.0,0.0,78,0.00,,,0.00,Rainwise IP-100,2013-01-18 11:54:00,
2013-01-18 06:59:00,1.3,0.0,29.81,NW,315,1.2,2.3,78,0.00,,,0.00,Rainwise IP-100,2013-01-18 11:59:00,
2013-01-18 07:04:00,1.1,0.0,29.82,NW,315,1.4,1.6,77,0.00,,,0.00,Rainwise IP-100,2013-01-18 12:04:00,
2013-01-18 07:09:00,0.8,0.0,29.82,NW,315,0.0,1.6,77,0.00,,,0.00,Rainwise IP-100,2013-01-18 12:09:00,
2013-01-18 07:14:00,0.6,0.0,29.83,NW,315,0.0,0.0,78,0.00,,,0.00,Rainwise IP-100,2013-01-18 12:14:00,
2013-01-18 07:20:00,0.3,-6.0,29.83,NW,315,0.0,0.0,78,0.00,,,0.00,Rainwise IP-100,2013-01-18 12:20:00,
2013-01-18 07:25:00,0.1,-6.0,29.83,NW,315,0.0,1.2,79,0.00,,,0.00,Rainwise IP-100,2013-01-18 12:25:00,
2013-01-18 07:30:00,0.3,-6.0,29.83,NW,315,1.4,0.0,79,0.00,,,0.00,Rainwise IP-100,2013-01-18 12:30:00,
2013-01-18 07:35:00,0.1,-6.0,29.84,NW,315,1.9,4.7,79,0.00,,,0.00,Rainwise IP-100,2013-01-18 12:35:00,
2013-01-18 07:40:00,0.6,0.0,29.84,NNW,337,3.5,3.5,78,0.00,,,0.00,Rainwise IP-100,2013-01-18 12:40:00,
2013-01-18 07:45:00,0.8,0.0,29.84,NNW,337,3.7,4.2,77,0.00,,,0.00,Rainwise IP-100,2013-01-18 12:45:00,
2013-01-18 07:50:00,0.7,0.0,29.84,NNW,337,2.6,4.4,76,0.00,,,0.00,Rainwise IP-100,2013-01-18 12:50:00,
2013-01-18 07:55:00,0.8,0.0,29.84,NNW,337,2.6,4.0,76,0.00,,,0.00,Rainwise IP-100,2013-01-18 12:55:00,
2013-01-18 08:00:00,1.1,0.0,29.85,NNW,337,1.6,4.4,76,0.00,,,0.00,Rainwise IP-100,2013-01-18 13:00:00,
2013-01-18 08:05:00,1.3,0.0,29.85,NNW,337,1.6,4.0,75,0.00,,,0.00,Rainwise IP-100,2013-01-18 13:05:00,
2013-01-18 08:10:00,1.3,0.0,29.85,NNW,337,2.6,2.6,75,0.00,,,0.00,Rainwise IP-100,2013-01-18 13:10:00,
2013-01-18 08:15:00,1.4,0.0,29.85,NNW,337,2.3,3.0,75,0.00,,,0.00,Rainwise IP-100,2013-01-18 13:15:00,
2013-01-18 08:20:00,1.9,0.0,29.86,North,360,3.7,4.2,74,0.00,,,0.00,Rainwise IP-100,2013-01-18 13:20:00,
2013-01-18 08:25:00,2.3,0.0,29.86,North,360,0.0,4.2,73,0.00,,,0.00,Rainwise IP-100,2013-01-18 13:25:00,
2013-01-18 08:30:00,3.0,0.0,29.86,North,360,2.1,2.6,73,0.00,,,0.00,Rainwise IP-100,2013-01-18 13:30:00,
2013-01-18 08:36:00,4.2,0.0,29.86,NNE,22,1.9,3.7,71,0.00,,,0.00,Rainwise IP-100,2013-01-18 13:36:00,
2013-01-18 08:41:00,4.6,0.0,29.85,NNE,22,0.0,2.1,70,0.00,,,0.00,Rainwise IP-100,2013-01-18 13:41:00,
2013-01-18 08:46:00,4.5,0.0,29.86,NNE,22,0.0,1.9,68,0.00,,,0.00,Rainwise IP-100,2013-01-18 13:46:00,
2013-01-18 08:51:00,4.6,0.0,29.87,NNE,22,0.0,1.9,67,0.00,,,0.00,Rainwise IP-100,2013-01-18 13:51:00,
2013-01-18 08:56:00,5.0,0.0,29.87,NNE,22,0.0,1.4,71,0.00,,,0.00,Rainwise IP-100,2013-01-18 13:56:00,
2013-01-18 09:01:00,5.4,4.0,29.87,NNE,22,2.3,2.8,77,0.00,,,0.00,Rainwise IP-100,2013-01-18 14:01:00,
2013-01-18 09:06:00,5.5,4.0,29.87,NNE,22,0.0,2.6,78,0.00,,,0.00,Rainwise IP-100,2013-01-18 14:06:00,
2013-01-18 09:11:00,5.7,4.0,29.88,ENE,67,3.0,4.2,78,0.00,,,0.00,Rainwise IP-100,2013-01-18 14:11:00,
2013-01-18 09:16:00,6.3,4.0,29.88,ENE,67,1.4,4.0,79,0.00,,,0.00,Rainwise IP-100,2013-01-18 14:16:00,
2013-01-18 09:21:00,6.7,4.0,29.88,ENE,67,2.3,3.7,81,0.00,,,0.00,Rainwise IP-100,2013-01-18 14:21:00,
2013-01-18 09:26:00,7.9,4.0,29.88,ENE,67,0.0,3.0,85,0.00,,,0.00,Rainwise IP-100,2013-01-18 14:26:00,
2013-01-18 09:31:00,10.0,8.0,29.88,ENE,67,2.6,2.8,89,0.00,,,0.00,Rainwise IP-100,2013-01-18 14:31:00,
2013-01-18 09:36:00,10.3,8.0,29.88,ENE,67,1.2,3.5,90,0.00,,,0.00,Rainwise IP-100,2013-01-18 14:36:00,
2013-01-18 09:41:00,10.5,8.0,29.88,East,90,2.1,4.0,91,0.00,,,0.00,Rainwise IP-100,2013-01-18 14:41:00,
2013-01-18 09:46:00,11.1,8.0,29.88,ESE,112,1.9,4.4,90,0.00,,,0.00,Rainwise IP-100,2013-01-18 14:46:00,
2013-01-18 09:52:00,11.5,11.0,29.88,ESE,112,0.0,3.3,88,0.00,,,0.00,Rainwise IP-100,2013-01-18 14:52:00,
2013-01-18 09:57:00,12.3,11.0,29.88,ENE,67,3.0,3.0,89,0.00,,,0.00,Rainwise IP-100,2013-01-18 14:57:00,
2013-01-18 10:02:00,13.0,11.0,29.88,South,180,0.0,3.7,91,0.00,,,0.00,Rainwise IP-100,2013-01-18 15:02:00,
2013-01-18 10:07:00,14.2,11.0,29.88,SSW,202,2.1,3.3,91,0.00,,,0.00,Rainwise IP-100,2013-01-18 15:07:00,
2013-01-18 10:12:00,15.2,14.0,29.88,NNW,337,1.4,4.0,92,0.00,,,0.00,Rainwise IP-100,2013-01-18 15:12:00,
2013-01-18 10:17:00,15.1,14.0,29.88,ENE,67,2.1,4.2,91,0.00,,,0.00,Rainwise IP-100,2013-01-18 15:17:00,
2013-01-18 10:22:00,14.1,11.0,29.88,East,90,1.2,4.2,88,0.00,,,0.00,Rainwise IP-100,2013-01-18 15:22:00,
2013-01-18 10:27:00,14.0,11.0,29.88,ESE,112,0.0,2.8,86,0.00,,,0.00,Rainwise IP-100,2013-01-18 15:27:00,
2013-01-18 10:32:00,15.2,14.0,29.88,SSW,202,1.4,4.0,87,0.00,,,0.00,Rainwise IP-100,2013-01-18 15:32:00,
2013-01-18 10:37:00,15.8,14.0,29.88,SSW,202,0.0,3.3,85,0.00,,,0.00,Rainwise IP-100,2013-01-18 15:37:00,
2013-01-18 10:42:00,15.8,11.0,29.87,NE,45,0.0,5.8,82,0.00,,,0.00,Rainwise IP-100,2013-01-18 15:42:00,
2013-01-18 10:47:00,15.0,11.0,29.87,ENE,67,3.5,10.3,77,0.00,,,0.00,Rainwise IP-100,2013-01-18 15:47:00,
2013-01-18 10:52:00,13.9,8.0,29.87,NNE,22,12.8,14.0,71,0.00,,,0.00,Rainwise IP-100,2013-01-18 15:52:00,
2013-01-18 10:57:00,13.3,4.0,29.87,NNW,337,6.3,15.4,63,0.00,,,0.00,Rainwise IP-100,2013-01-18 15:57:00,
2013-01-18 11:02:00,13.2,4.0,29.87,NNE,22,7.9,14.0,58,0.00,,,0.00,Rainwise IP-100,2013-01-18 16:02:00,
2013-01-18 11:08:00,13.5,0.0,29.86,NNW,337,6.5,12.6,55,0.00,,,0.00,Rainwise IP-100,2013-01-18 16:08:00,
2013-01-18 11:13:00,13.9,0.0,29.86,ENE,67,2.3,14.9,52,0.00,,,0.00,Rainwise IP-100,2013-01-18 16:13:00,
2013-01-18 11:18:00,13.8,0.0,29.85,NNE,22,11.0,15.6,51,0.00,,,0.00,Rainwise IP-100,2013-01-18 16:18:00,
2013-01-18 11:23:00,13.8,0.0,29.85,NNE,22,9.6,11.9,50,0.00,,,0.00,Rainwise IP-100,2013-01-18 16:23:00,
2013-01-18 11:28:00,14.0,0.0,29.85,WSW,247,4.2,12.8,49,0.00,,,0.00,Rainwise IP-100,2013-01-18 16:28:00,
2013-01-18 11:33:00,14.5,0.0,29.85,NNW,337,6.3,10.3,49,0.00,,,0.00,Rainwise IP-100,2013-01-18 16:33:00,
2013-01-18 11:38:00,14.9,0.0,29.85,NNW,337,4.4,15.2,48,0.00,,,0.00,Rainwise IP-100,2013-01-18 16:38:00,
2013-01-18 11:43:00,15.2,0.0,29.85,NNE,22,3.5,8.9,47,0.00,,,0.00,Rainwise IP-100,2013-01-18 16:43:00,
2013-01-18 11:48:00,15.4,0.0,29.84,NNE,22,12.1,16.3,46,0.00,,,0.00,Rainwise IP-100,2013-01-18 16:48:00,
2013-01-18 11:53:00,15.5,0.0,29.84,NNE,22,10.7,15.9,45,0.00,,,0.00,Rainwise IP-100,2013-01-18 16:53:00,
2013-01-18 11:58:00,15.7,0.0,29.84,NNE,22,10.3,14.0,45,0.00,,,0.00,Rainwise IP-100,2013-01-18 16:58:00,
2013-01-18 12:03:00,16.0,0.0,29.84,NNE,22,7.2,14.5,44,0.00,,,0.00,Rainwise IP-100,2013-01-18 17:03:00,
2013-01-18 12:08:00,15.9,0.0,29.84,NW,315,3.5,14.9,43,0.00,,,0.00,Rainwise IP-100,2013-01-18 17:08:00,
2013-01-18 12:13:00,15.9,0.0,29.84,NNW,337,6.5,7.7,43,0.00,,,0.00,Rainwise IP-100,2013-01-18 17:13:00,
2013-01-18 12:18:00,16.2,0.0,29.83,NW,315,3.5,13.5,43,0.00,,,0.00,Rainwise IP-100,2013-01-18 17:18:00,
2013-01-18 12:24:00,16.7,0.0,29.84,NNW,337,8.6,11.4,43,0.00,,,0.00,Rainwise IP-100,2013-01-18 17:24:00,
2013-01-18 12:29:00,17.1,0.0,29.84,NNW,337,6.8,12.4,43,0.00,,,0.00,Rainwise IP-100,2013-01-18 17:29:00,
2013-01-18 12:34:00,17.5,0.0,29.84,WSW,247,5.4,16.6,44,0.00,,,0.00,Rainwise IP-100,2013-01-18 17:34:00,
2013-01-18 12:39:00,17.8,0.0,29.85,NNE,22,4.9,11.9,42,0.00,,,0.00,Rainwise IP-100,2013-01-18 17:39:00,
2013-01-18 12:44:00,18.0,0.0,29.84,ENE,67,2.6,10.0,42,0.00,,,0.00,Rainwise IP-100,2013-01-18 17:44:00,
2013-01-18 12:49:00,17.8,0.0,29.84,NNE,22,7.7,12.6,42,0.00,,,0.00,Rainwise IP-100,2013-01-18 17:49:00,
2013-01-18 12:54:00,17.8,0.0,29.84,NNW,337,5.6,11.9,41,0.00,,,0.00,Rainwise IP-100,2013-01-18 17:54:00,
2013-01-18 12:59:00,18.3,0.0,29.84,ESE,112,2.6,8.4,41,0.00,,,0.00,Rainwise IP-100,2013-01-18 17:59:00,
2013-01-18 13:04:00,18.8,4.0,29.84,SE,135,2.6,11.0,42,0.00,,,0.00,Rainwise IP-100,2013-01-18 18:04:00,
2013-01-18 13:09:00,18.9,4.0,29.84,NNE,22,7.5,11.0,41,0.00,,,0.00,Rainwise IP-100,2013-01-18 18:09:00,
2013-01-18 13:14:00,19.0,4.0,29.84,SSW,202,4.4,10.0,41,0.00,,,0.00,Rainwise IP-100,2013-01-18 18:14:00,
2013-01-18 13:19:00,19.4,4.0,29.84,WSW,247,0.0,10.3,41,0.00,,,0.00,Rainwise IP-100,2013-01-18 18:19:00,
2013-01-18 13:24:00,19.6,4.0,29.84,SSE,157,3.0,8.6,42,0.00,,,0.00,Rainwise IP-100,2013-01-18 18:24:00,
2013-01-18 13:29:00,19.3,4.0,29.85,NE,45,4.9,12.1,41,0.00,,,0.00,Rainwise IP-100,2013-01-18 18:29:00,
2013-01-18 13:34:00,19.1,4.0,29.85,SSE,157,1.9,14.0,41,0.00,,,0.00,Rainwise IP-100,2013-01-18 18:34:00,
2013-01-18 13:40:00,19.2,0.0,29.86,WNW,292,1.4,12.8,40,0.00,,,0.00,Rainwise IP-100,2013-01-18 18:40:00,
2013-01-18 13:45:00,19.2,0.0,29.86,South,180,7.2,9.3,40,0.00,,,0.00,Rainwise IP-100,2013-01-18 18:45:00,
2013-01-18 13:50:00,19.2,0.0,29.86,NE,45,0.0,11.7,40,0.00,,,0.00,Rainwise IP-100,2013-01-18 18:50:00,
2013-01-18 13:55:00,19.3,0.0,29.86,NNW,337,6.1,16.8,39,0.00,,,0.00,Rainwise IP-100,2013-01-18 18:55:00,
2013-01-18 14:00:00,19.3,0.0,29.86,SSW,202,1.2,10.0,39,0.00,,,0.00,Rainwise IP-100,2013-01-18 19:00:00,
2013-01-18 14:05:00,19.6,0.0,29.87,WSW,247,1.2,8.6,39,0.00,,,0.00,Rainwise IP-100,2013-01-18 19:05:00,
2013-01-18 14:10:00,19.9,0.0,29.87,SSE,157,3.5,7.0,39,0.00,,,0.00,Rainwise IP-100,2013-01-18 19:10:00,
2013-01-18 14:15:00,19.8,0.0,29.88,SW,225,7.0,17.0,39,0.00,,,0.00,Rainwise IP-100,2013-01-18 19:15:00,
2013-01-18 14:20:00,19.6,0.0,29.88,SSE,157,2.6,8.9,38,0.00,,,0.00,Rainwise IP-100,2013-01-18 19:20:00,
2013-01-18 14:25:00,19.7,0.0,29.88,WSW,247,3.0,7.2,38,0.00,,,0.00,Rainwise IP-100,2013-01-18 19:25:00,
2013-01-18 14:30:00,19.8,0.0,29.88,SSW,202,6.3,9.3,38,0.00,,,0.00,Rainwise IP-100,2013-01-18 19:30:00,
2013-01-18 14:35:00,19.9,0.0,29.88,WNW,292,0.0,7.2,39,0.00,,,0.00,Rainwise IP-100,2013-01-18 19:35:00,
2013-01-18 14:40:00,20.2,0.0,29.88,SSW,202,1.2,6.5,39,0.00,,,0.00,Rainwise IP-100,2013-01-18 19:40:00,
2013-01-18 14:45:00,20.6,0.0,29.87,SW,225,0.0,7.2,40,0.00,,,0.00,Rainwise IP-100,2013-01-18 19:45:00,
2013-01-18 14:50:00,21.3,4.0,29.88,NNE,22,3.3,6.3,41,0.00,,,0.00,Rainwise IP-100,2013-01-18 19:50:00,
2013-01-18 14:56:00,21.6,4.0,29.87,North,360,6.1,7.0,40,0.00,,,0.00,Rainwise IP-100,2013-01-18 19:56:00,
2013-01-18 15:01:00,21.6,4.0,29.88,NNW,337,3.7,7.7,39,0.00,,,0.00,Rainwise IP-100,2013-01-18 20:01:00,
2013-01-18 15:06:00,21.7,4.0,29.88,NW,315,0.0,5.8,39,0.00,,,0.00,Rainwise IP-100,2013-01-18 20:06:00,
2013-01-18 15:11:00,21.3,0.0,29.88,NNE,22,2.1,5.6,38,0.00,,,0.00,Rainwise IP-100,2013-01-18 20:11:00,
2013-01-18 15:16:00,20.8,0.0,29.87,NNE,22,1.4,7.0,38,0.00,,,0.00,Rainwise IP-100,2013-01-18 20:16:00,
2013-01-18 15:21:00,21.1,0.0,29.88,NNE,22,4.4,6.1,39,0.00,,,0.00,Rainwise IP-100,2013-01-18 20:21:00,
2013-01-18 15:26:00,20.7,0.0,29.87,NNE,22,1.6,5.4,39,0.00,,,0.00,Rainwise IP-100,2013-01-18 20:26:00,
2013-01-18 15:31:00,20.2,0.0,29.87,NNW,337,1.6,3.5,38,0.00,,,0.00,Rainwise IP-100,2013-01-18 20:31:00,
2013-01-18 15:36:00,20.6,0.0,29.87,NNE,22,1.2,6.3,38,0.00,,,0.00,Rainwise IP-100,2013-01-18 20:36:00,
2013-01-18 15:41:00,20.9,0.0,29.87,NNW,337,0.0,5.1,38,0.00,,,0.00,Rainwise IP-100,2013-01-18 20:41:00,
2013-01-18 15:46:00,21.2,0.0,29.87,NNE,22,0.0,1.6,37,0.00,,,0.00,Rainwise IP-100,2013-01-18 20:46:00,
2013-01-18 15:51:00,21.3,0.0,29.87,NNE,22,0.0,2.1,37,0.00,,,0.00,Rainwise IP-100,2013-01-18 20:51:00,
2013-01-18 15:57:00,20.9,0.0,29.87,NNE,22,0.0,1.2,37,0.00,,,0.00,Rainwise IP-100,2013-01-18 20:57:00,
2013-01-18 16:02:00,20.0,0.0,29.87,NNE,22,1.2,3.5,38,0.00,,,0.00,Rainwise IP-100,2013-01-18 21:02:00,
2013-01-18 16:07:00,19.0,0.0,29.87,NNE,22,0.0,1.9,39,0.00,,,0.00,Rainwise IP-100,2013-01-18 21:07:00,
2013-01-18 16:12:00,18.4,0.0,29.87,NNE,22,0.0,0.0,41,0.00,,,0.00,Rainwise IP-100,2013-01-18 21:12:00,
2013-01-18 16:17:00,18.1,0.0,29.87,NNE,22,0.0,1.9,41,0.00,,,0.00,Rainwise IP-100,2013-01-18 21:17:00,
2013-01-18 16:22:00,17.9,0.0,29.87,NNE,22,0.0,0.0,41,0.00,,,0.00,Rainwise IP-100,2013-01-18 21:22:00,
2013-01-18 16:27:00,17.7,0.0,29.87,NNE,22,0.0,0.0,40,0.00,,,0.00,Rainwise IP-100,2013-01-18 21:27:00,
2013-01-18 16:32:00,17.5,0.0,29.87,NNE,22,0.0,0.0,40,0.00,,,0.00,Rainwise IP-100,2013-01-18 21:32:00,
2013-01-18 16:37:00,17.0,0.0,29.87,NNE,22,0.0,0.0,41,0.00,,,0.00,Rainwise IP-100,2013-01-18 21:37:00,
2013-01-18 16:42:00,16.6,0.0,29.87,NNE,22,0.0,0.0,44,0.00,,,0.00,Rainwise IP-100,2013-01-18 21:42:00,
2013-01-18 16:47:00,16.3,0.0,29.88,NNE,22,0.0,0.0,48,0.00,,,0.00,Rainwise IP-100,2013-01-18 21:47:00,
2013-01-18 16:52:00,15.9,4.0,29.88,NNE,22,0.0,0.0,52,0.00,,,0.00,Rainwise IP-100,2013-01-18 21:52:00,
2013-01-18 16:57:00,15.6,4.0,29.88,NNE,22,0.0,0.0,53,0.00,,,0.00,Rainwise IP-100,2013-01-18 21:57:00,
2013-01-18 17:02:00,15.1,4.0,29.88,NNE,22,0.0,0.0,54,0.00,,,0.00,Rainwise IP-100,2013-01-18 22:02:00,
2013-01-18 17:07:00,14.6,4.0,29.88,NNE,22,0.0,0.0,56,0.00,,,0.00,Rainwise IP-100,2013-01-18 22:07:00,
2013-01-18 17:13:00,14.5,4.0,29.88,NNE,22,0.0,0.0,57,0.00,,,0.00,Rainwise IP-100,2013-01-18 22:13:00,
2013-01-18 17:18:00,14.2,4.0,29.88,NNE,22,0.0,0.0,59,0.00,,,0.00,Rainwise IP-100,2013-01-18 22:18:00,
2013-01-18 17:23:00,13.7,4.0,29.88,NNE,22,0.0,0.0,61,0.00,,,0.00,Rainwise IP-100,2013-01-18 22:23:00,
2013-01-18 17:28:00,13.2,4.0,29.88,NNE,22,0.0,0.0,63,0.00,,,0.00,Rainwise IP-100,2013-01-18 22:28:00,
2013-01-18 17:33:00,13.0,4.0,29.89,NNE,22,0.0,0.0,64,0.00,,,0.00,Rainwise IP-100,2013-01-18 22:33:00,
2013-01-18 17:38:00,12.8,4.0,29.89,NNE,22,0.0,1.2,64,0.00,,,0.00,Rainwise IP-100,2013-01-18 22:38:00,
2013-01-18 17:43:00,12.3,4.0,29.89,NNE,22,0.0,0.0,64,0.00,,,0.00,Rainwise IP-100,2013-01-18 22:43:00,
2013-01-18 17:48:00,12.0,4.0,29.89,NNE,22,0.0,0.0,65,0.00,,,0.00,Rainwise IP-100,2013-01-18 22:48:00,
2013-01-18 17:53:00,11.5,4.0,29.89,NNE,22,0.0,1.2,65,0.00,,,0.00,Rainwise IP-100,2013-01-18 22:53:00,
2013-01-18 17:58:00,11.1,4.0,29.88,NNE,22,0.0,0.0,66,0.00,,,0.00,Rainwise IP-100,2013-01-18 22:58:00,
2013-01-18 18:03:00,11.2,4.0,29.88,NNE,22,0.0,0.0,68,0.00,,,0.00,Rainwise IP-100,2013-01-18 23:03:00,
2013-01-18 18:08:00,11.2,4.0,29.88,NNE,22,0.0,0.0,69,0.00,,,0.00,Rainwise IP-100,2013-01-18 23:08:00,
2013-01-18 18:13:00,10.9,4.0,29.89,NNE,22,0.0,0.0,70,0.00,,,0.00,Rainwise IP-100,2013-01-18 23:13:00,
2013-01-18 18:18:00,10.4,4.0,29.88,NNE,22,0.0,0.0,70,0.00,,,0.00,Rainwise IP-100,2013-01-18 23:18:00,
2013-01-18 18:23:00,10.0,4.0,29.89,NNE,22,0.0,0.0,70,0.00,,,0.00,Rainwise IP-100,2013-01-18 23:23:00,
2013-01-18 18:29:00,9.9,4.0,29.88,NNE,22,1.2,0.0,71,0.00,,,0.00,Rainwise IP-100,2013-01-18 23:29:00,
2013-01-18 18:34:00,9.9,4.0,29.89,NNE,22,0.0,1.4,72,0.00,,,0.00,Rainwise IP-100,2013-01-18 23:34:00,
2013-01-18 18:39:00,9.8,4.0,29.89,NNE,22,0.0,0.0,73,0.00,,,0.00,Rainwise IP-100,2013-01-18 23:39:00,
2013-01-18 18:44:00,9.8,4.0,29.88,NNE,22,0.0,0.0,72,0.00,,,0.00,Rainwise IP-100,2013-01-18 23:44:00,
2013-01-18 18:49:00,9.5,4.0,29.89,NNE,22,0.0,0.0,72,0.00,,,0.00,Rainwise IP-100,2013-01-18 23:49:00,
2013-01-18 18:54:00,9.3,4.0,29.90,NNE,22,0.0,0.0,73,0.00,,,0.00,Rainwise IP-100,2013-01-18 23:54:00,
2013-01-18 18:59:00,9.2,4.0,29.89,NNE,22,0.0,0.0,73,0.00,,,0.00,Rainwise IP-100,2013-01-18 23:59:00,
2013-01-18 19:04:00,9.1,4.0,29.89,NNE,22,0.0,1.6,73,0.00,,,0.00,Rainwise IP-100,2013-01-19 00:04:00,
2013-01-18 19:09:00,8.9,4.0,29.89,NNE,22,0.0,0.0,73,0.00,,,0.00,Rainwise IP-100,2013-01-19 00:09:00,
2013-01-18 19:14:00,8.6,4.0,29.89,NNE,22,0.0,0.0,73,0.00,,,0.00,Rainwise IP-100,2013-01-19 00:14:00,
2013-01-18 19:19:00,8.3,0.0,29.89,NNE,22,0.0,0.0,74,0.00,,,0.00,Rainwise IP-100,2013-01-19 00:19:00,
2013-01-18 19:24:00,8.1,4.0,29.89,NNE,22,0.0,0.0,75,0.00,,,0.00,Rainwise IP-100,2013-01-19 00:24:00,
2013-01-18 19:29:00,8.1,4.0,29.89,NNE,22,0.0,0.0,75,0.00,,,0.00,Rainwise IP-100,2013-01-19 00:29:00,
2013-01-18 19:35:00,8.3,4.0,29.90,NNE,22,0.0,0.0,76,0.00,,,0.00,Rainwise IP-100,2013-01-19 00:35:00,
2013-01-18 19:40:00,8.2,4.0,29.90,NNE,22,0.0,0.0,76,0.00,,,0.00,Rainwise IP-100,2013-01-19 00:40:00,
2013-01-18 19:45:00,8.1,4.0,29.90,NNE,22,0.0,0.0,76,0.00,,,0.00,Rainwise IP-100,2013-01-19 00:45:00,
2013-01-18 19:50:00,7.7,4.0,29.90,NNE,22,0.0,0.0,76,0.00,,,0.00,Rainwise IP-100,2013-01-19 00:50:00,
2013-01-18 19:55:00,7.4,4.0,29.90,NNE,22,0.0,0.0,76,0.00,,,0.00,Rainwise IP-100,2013-01-19 00:55:00,
2013-01-18 20:00:00,7.3,4.0,29.90,NNE,22,0.0,0.0,77,0.00,,,0.00,Rainwise IP-100,2013-01-19 01:00:00,
2013-01-18 20:05:00,7.3,4.0,29.90,NNE,22,0.0,0.0,78,0.00,,,0.00,Rainwise IP-100,2013-01-19 01:05:00,
2013-01-18 20:10:00,7.2,4.0,29.90,NNE,22,0.0,0.0,77,0.00,,,0.00,Rainwise IP-100,2013-01-19 01:10:00,
2013-01-18 20:15:00,6.9,4.0,29.90,North,360,2.3,2.6,76,0.00,,,0.00,Rainwise IP-100,2013-01-19 01:15:00,
2013-01-18 20:20:00,6.7,4.0,29.90,NNW,337,0.0,3.5,75,0.00,,,0.00,Rainwise IP-100,2013-01-19 01:20:00,
2013-01-18 20:25:00,6.7,4.0,29.90,NNW,337,0.0,0.0,75,0.00,,,0.00,Rainwise IP-100,2013-01-19 01:25:00,
2013-01-18 20:30:00,6.5,4.0,29.89,NNW,337,0.0,1.2,76,0.00,,,0.00,Rainwise IP-100,2013-01-19 01:30:00,
2013-01-18 20:35:00,6.3,4.0,29.89,NNW,337,0.0,0.0,76,0.00,,,0.00,Rainwise IP-100,2013-01-19 01:35:00,
2013-01-18 20:40:00,6.2,4.0,29.90,NNW,337,0.0,0.0,77,0.00,,,0.00,Rainwise IP-100,2013-01-19 01:40:00,
2013-01-18 20:45:00,6.1,4.0,29.90,NNW,337,0.0,0.0,77,0.00,,,0.00,Rainwise IP-100,2013-01-19 01:45:00,
2013-01-18 20:51:00,5.8,4.0,29.89,NNW,337,0.0,1.2,78,0.00,,,0.00,Rainwise IP-100,2013-01-19 01:51:00,
2013-01-18 20:56:00,5.6,4.0,29.90,NNW,337,0.0,1.2,78,0.00,,,0.00,Rainwise IP-100,2013-01-19 01:56:00,
2013-01-18 21:01:00,5.6,4.0,29.89,NNW,337,1.2,1.6,79,0.00,,,0.00,Rainwise IP-100,2013-01-19 02:01:00,
2013-01-18 21:06:00,5.9,4.0,29.90,NNW,337,0.0,1.9,78,0.00,,,0.00,Rainwise IP-100,2013-01-19 02:06:00,
2013-01-18 21:11:00,5.9,4.0,29.89,NNW,337,0.0,1.6,77,0.00,,,0.00,Rainwise IP-100,2013-01-19 02:11:00,
2013-01-18 21:16:00,5.8,4.0,29.89,NNW,337,1.6,1.6,77,0.00,,,0.00,Rainwise IP-100,2013-01-19 02:16:00,
2013-01-18 21:21:00,5.9,4.0,29.89,NNW,337,0.0,1.9,77,0.00,,,0.00,Rainwise IP-100,2013-01-19 02:21:00,
2013-01-18 21:26:00,6.0,4.0,29.89,NNW,337,2.3,2.3,77,0.00,,,0.00,Rainwise IP-100,2013-01-19 02:26:00,
2013-01-18 21:31:00,6.2,4.0,29.88,NNW,337,0.0,3.3,77,0.00,,,0.00,Rainwise IP-100,2013-01-19 02:31:00,
2013-01-18 21:36:00,6.2,4.0,29.88,NNW,337,0.0,0.0,77,0.00,,,0.00,Rainwise IP-100,2013-01-19 02:36:00,
2013-01-18 21:41:00,6.1,4.0,29.88,NNW,337,0.0,0.0,78,0.00,,,0.00,Rainwise IP-100,2013-01-19 02:41:00,
2013-01-18 21:46:00,6.2,4.0,29.88,NNW,337,0.0,0.0,78,0.00,,,0.00,Rainwise IP-100,2013-01-19 02:46:00,
2013-01-18 21:51:00,6.1,4.0,29.88,NNW,337,0.0,0.0,78,0.00,,,0.00,Rainwise IP-100,2013-01-19 02:51:00,
2013-01-18 21:56:00,6.1,4.0,29.88,NNW,337,1.6,2.6,78,0.00,,,0.00,Rainwise IP-100,2013-01-19 02:56:00,
2013-01-18 22:01:00,6.1,4.0,29.87,NNW,337,4.7,5.1,78,0.00,,,0.00,Rainwise IP-100,2013-01-19 03:01:00,
2013-01-18 22:07:00,6.0,4.0,29.87,NNW,337,1.4,4.7,77,0.00,,,0.00,Rainwise IP-100,2013-01-19 03:07:00,
2013-01-18 22:12:00,5.9,4.0,29.87,NNW,337,0.0,2.6,77,0.00,,,0.00,Rainwise IP-100,2013-01-19 03:12:00,
2013-01-18 22:17:00,5.6,4.0,29.87,NNW,337,0.0,0.0,78,0.00,,,0.00,Rainwise IP-100,2013-01-19 03:17:00,
2013-01-18 22:22:00,5.4,4.0,29.87,NNW,337,0.0,0.0,78,0.00,,,0.00,Rainwise IP-100,2013-01-19 03:22:00,
2013-01-18 22:27:00,5.2,4.0,29.87,NNW,337,0.0,0.0,79,0.00,,,0.00,Rainwise IP-100,2013-01-19 03:27:00,
2013-01-18 22:32:00,5.2,4.0,29.87,NNW,337,0.0,1.6,80,0.00,,,0.00,Rainwise IP-100,2013-01-19 03:32:00,
2013-01-18 22:37:00,5.5,4.0,29.86,NNW,337,1.2,1.6,80,0.00,,,0.00,Rainwise IP-100,2013-01-19 03:37:00,
2013-01-18 22:42:00,5.7,4.0,29.86,NNW,337,0.0,1.9,80,0.00,,,0.00,Rainwise IP-100,2013-01-19 03:42:00,
2013-01-18 22:47:00,5.9,4.0,29.86,NNW,337,1.4,1.9,80,0.00,,,0.00,Rainwise IP-100,2013-01-19 03:47:00,
2013-01-18 22:52:00,6.1,4.0,29.85,NNW,337,2.6,4.0,80,0.00,,,0.00,Rainwise IP-100,2013-01-19 03:52:00,
2013-01-18 22:57:00,6.3,4.0,29.85,NNW,337,1.6,3.3,80,0.00,,,0.00,Rainwise IP-100,2013-01-19 03:57:00,
2013-01-18 23:02:00,6.5,4.0,29.85,NNW,337,0.0,3.3,80,0.00,,,0.00,Rainwise IP-100,2013-01-19 04:02:00,
2013-01-18 23:07:00,6.7,4.0,29.84,NNW,337,0.0,2.1,81,0.00,,,0.00,Rainwise IP-100,2013-01-19 04:07:00,
2013-01-18 23:13:00,6.7,4.0,29.84,NNW,337,0.0,1.2,81,0.00,,,0.00,Rainwise IP-100,2013-01-19 04:13:00,
2013-01-18 23:18:00,6.8,4.0,29.83,NNW,337,1.6,1.9,81,0.00,,,0.00,Rainwise IP-100,2013-01-19 04:18:00,
2013-01-18 23:23:00,6.9,4.0,29.82,NNW,337,0.0,1.6,82,0.00,,,0.00,Rainwise IP-100,2013-01-19 04:23:00,
2013-01-18 23:28:00,7.1,4.0,29.83,NNW,337,1.4,1.9,82,0.00,,,0.00,Rainwise IP-100,2013-01-19 04:28:00,
2013-01-18 23:33:00,7.3,4.0,29.83,North,360,3.0,3.7,81,0.00,,,0.00,Rainwise IP-100,2013-01-19 04:33:00,
2013-01-18 23:38:00,7.5,4.0,29.83,North,360,0.0,4.0,81,0.00,,,0.00,Rainwise IP-100,2013-01-19 04:38:00,
2013-01-18 23:43:00,7.7,4.0,29.83,North,360,0.0,2.3,82,0.00,,,0.00,Rainwise IP-100,2013-01-19 04:43:00,
2013-01-18 23:48:00,7.9,4.0,29.83,North,360,0.0,0.0,82,0.00,,,0.00,Rainwise IP-100,2013-01-19 04:48:00,
2013-01-18 23:53:00,8.1,4.0,29.82,North,360,0.0,0.0,82,0.00,,,0.00,Rainwise IP-100,2013-01-19 04:53:00,
2013-01-18 23:58:00,8.1,4.0,29.81,North,360,0.0,0.0,82,0.00,,,0.00,Rainwise IP-100,2013-01-19 04:58:00,